Valentine, NE

3:55 AM CDT on March 23, 2017 (GMT -0500)
Miller Field

Weather History for KVTN - August, 2013

Change the Weather History Date:

Thursday, August 1, 2013

  Actual Average Record
Temperature  
Mean Temperature 76 °F 75 °F  
Max Temperature 86 °F 89 °F 106 °F (1982)
Min Temperature 65 °F 61 °F 44 °F (2009)
Degree Days  
Heating Degree Days 0 0  
Month to date heating degree days 0 0  
Since 1 June heating degree days 57 69  
Since 1 July heating degree days 3 8  
Cooling Degree Days 11 10  
Month to date cooling degree days 11 10  
Year to date cooling degree days 488 485  
Since 1 June cooling degree days 449 451  
Growing Degree Days 25 (Base 50)    
Moisture  
Dew Point 65 °F    
Average Humidity 78    
Maximum Humidity 100    
Minimum Humidity 55    
Precipitation  
Precipitation 0.12 in 0.10 in 2.28 in (1951)
Month to date precipitation 0.12 0.10  
Year to date precipitation 15.75 14.03  
Snow  
Snow 0.00 in 0.00 in 0.00 in ()
Month to date snowfall 0.0 0.0  
Since 1 June snowfall 0.0 0.0  
Since 1 July snowfall 0.0 0.0  
Snow Depth 0.00 in    
Sea Level Pressure  
Sea Level Pressure 29.98 in    
Wind  
Wind Speed 6 mph (ESE)    
Max Wind Speed 33 mph    
Max Gust Speed 45 mph    
Visibility 9 miles    
Events Rain , Thunderstorm    
T = Trace of Precipitation, MM = Missing Value Source: NWS Daily Summary

Daily Weather History Graph

Daily Weather History Graph

Search for Another Location

Airport or City:

Trip Planner

Search our weather history database for the weather conditions in past years. The results will help you decide how hot, cold, wet, or windy it might be!

Date:

Astronomy

Aug. 01, 2013 Rise Set
Actual Time 6:33 AM CDT 9:02 PM CDT
Civil Twilight 6:01 AM CDT 9:34 PM CDT
Nautical Twilight 5:21 AM CDT 10:14 PM CDT
Astronomical Twilight 4:36 AM CDT 10:59 PM CDT
Moon 2:10 AM CDT (8/1) 5:14 PM CDT (8/1)
Length of Visible Light 15h 32m
Length of Day
14h 28m
Waning Crescent, 23% of the Moon is Illuminated
Aug 1
Waning Crescent
Aug 6
New
Aug 14
First Quarter
Aug 20
Full
Aug 28
Last Quarter

Hourly Weather History & Observations

Time (CDT) Temp. Heat Index Dew Point Humidity Pressure Visibility Wind Dir Wind Speed Gust Speed Precip Events Conditions
12:52 AM 68.0 °F - 61.0 °F 78% 30.09 in 10.0 mi South 6.9 mph - N/A   Clear
1:52 AM 69.1 °F - 61.0 °F 75% 30.10 in 10.0 mi South 5.8 mph - N/A   Mostly Cloudy
2:52 AM 68.0 °F - 60.1 °F 76% 30.08 in 10.0 mi Calm Calm - N/A   Partly Cloudy
3:52 AM 69.1 °F - 62.1 °F 78% 30.06 in 10.0 mi SSW 4.6 mph - N/A   Mostly Cloudy
4:11 AM 68.0 °F - 64.4 °F 88% 30.11 in 4.0 mi North 4.6 mph - 0.01 in Rain , Thunderstorm Rain
4:52 AM 66.0 °F - 64.0 °F 93% 30.06 in 10.0 mi Calm Calm - 0.01 in   Partly Cloudy
5:52 AM 66.0 °F - 64.0 °F 93% 30.04 in 10.0 mi Calm Calm - N/A   Partly Cloudy
6:52 AM 64.9 °F - 63.0 °F 93% 30.05 in 8.0 mi SSW 3.5 mph - N/A   Clear
7:52 AM 68.0 °F - 64.9 °F 90% 30.04 in 9.0 mi SSW 5.8 mph - N/A   Clear
8:52 AM 72.0 °F - 64.9 °F 78% 30.02 in 10.0 mi SSW 8.1 mph - N/A   Clear
9:52 AM 77.0 °F - 66.0 °F 69% 30.01 in 10.0 mi SSW 6.9 mph - N/A   Clear
10:52 AM 78.1 °F - 66.0 °F 66% 29.99 in 10.0 mi South 9.2 mph - N/A   Clear
11:52 AM 82.9 °F 85.4 °F 66.9 °F 58% 29.98 in 10.0 mi Calm Calm - N/A   Clear
12:52 PM 84.9 °F 87.1 °F 66.0 °F 53% 29.96 in 10.0 mi SSE 5.8 mph - N/A   Scattered Clouds
1:52 PM 81.0 °F 82.7 °F 64.9 °F 58% 29.93 in 10.0 mi South 11.5 mph - N/A Thunderstorm Mostly Cloudy
2:35 PM 71.6 °F - 66.2 °F 83% 30.03 in 1.8 mi NNW 17.3 mph 28.8 mph 0.04 in Rain , Thunderstorm Heavy Thunderstorms and Rain
2:42 PM 69.8 °F - 66.2 °F 88% 30.04 in 2.0 mi North 15.0 mph 28.8 mph 0.09 in Rain , Thunderstorm Light Thunderstorms and Rain
2:50 PM 71.6 °F - 68.0 °F 88% 30.02 in 8.0 mi NE 12.7 mph 21.9 mph 0.10 in Rain , Thunderstorm Light Thunderstorms and Rain
2:52 PM 71.1 °F - 68.0 °F 90% 29.98 in 9.0 mi NNE 8.1 mph 18.4 mph 0.10 in Rain , Thunderstorm Light Thunderstorms and Rain
3:32 PM 71.6 °F - 68.0 °F 88% 29.99 in 10.0 mi NE 8.1 mph - 0.01 in   Mostly Cloudy
3:52 PM 75.0 °F - 68.0 °F 79% 29.94 in 10.0 mi East 9.2 mph - 0.01 in   Partly Cloudy
4:52 PM 77.0 °F - 66.9 °F 71% 29.93 in 10.0 mi NE 4.6 mph - N/A   Overcast
5:52 PM 75.9 °F - 70.0 °F 82% 29.90 in 10.0 mi East 10.4 mph - N/A   Mostly Cloudy
6:43 PM 77.0 °F - 64.4 °F 65% 29.94 in 10.0 mi East 10.4 mph - N/A Thunderstorm Clear
6:52 PM 75.9 °F - 64.0 °F 67% 29.89 in 10.0 mi ENE 11.5 mph - N/A Thunderstorm Thunderstorm
7:25 PM 68.0 °F - 62.6 °F 83% 29.94 in 7.0 mi East 32.2 mph 44.9 mph 0.00 in Rain , Thunderstorm Light Thunderstorms and Rain
7:36 PM 69.8 °F - 62.6 °F 78% 29.93 in 8.0 mi East 19.6 mph 42.6 mph 0.00 in Thunderstorm Scattered Clouds
7:52 PM 72.0 °F - 64.9 °F 78% 29.87 in 10.0 mi SE 12.7 mph - 0.00 in Thunderstorm Partly Cloudy
7:59 PM 71.6 °F - 62.6 °F 73% 29.92 in 10.0 mi East 11.5 mph - N/A   Clear
8:52 PM 69.1 °F - 66.9 °F 93% 29.86 in 10.0 mi ESE 8.1 mph - N/A   Clear
9:52 PM 68.0 °F - 66.0 °F 93% 29.86 in 10.0 mi East 3.5 mph - 0.00 in   Clear
10:52 PM 66.9 °F - 64.9 °F 93% 29.83 in 10.0 mi ENE 8.1 mph - N/A   Clear
11:52 PM 64.9 °F - 64.0 °F 97% 29.87 in 10.0 mi ESE 5.8 mph - N/A   Clear